Flag for Germany Weather past 2 weeks in Wittmund, Lower Saxony, Germany

Now
61 °F

Fog.


Feels Like: 61 °F
Forecast: 59 / 73 °F
Wind: 5 mph from East

Location: Wittmundhaven

Current Time: Sep 16, 2014 at 3:24:20 AM

Latest Report: Sep 16, 2014 at 2:20 AM


Visibility: 2 mi

Pressure: 30.07 "Hg

Humidity: 94%

Dew point: 59 °F

Location of WittmundLocation

Historic Weather in Wittmund — Graph

°F

Wittmund temperature yesterday

Maximum temperature yesterday: 68 °F (at 5:20 PM)
Minimum temperature yesterday: 59 °F (at 12:20 AM)
Average temperature yesterday: 63 °F

Past Weeks' High & Low Weather Summary

 TemperatureHumidityPressure
High75 °F (Sep 5, 4:20 PM)100% (Sep 2, 1:20 AM)30.33 "Hg (Sep 2, 1:20 AM)
Low48 °F (Sep 12, 4:20 AM)53% (Sep 3, 1:20 PM)29.86 "Hg (Sep 6, 5:20 PM)
Average61 °F85%30.10 "Hg
* Reported Sep 1 1:20 AM — Sep 16 1:20 AM, Wittmund, Weather by CustomWeather, © 2014

Note: Actual official high and low records may vary slightly from our data, if they occured in-between our weather recording intervals... More about our weather records

Advertising

Wittmund weather history for previous 24 hours

 ConditionsComfort  
Time TempWeatherWind HumidityBarometerVisibility
1:20 AM
Sep 16
63 °FFog.6 mph94%30.07 "Hg1 mi
12:20 AM63 °FFog.6 mph94%30.07 "Hg2 mi
11:20 PM
Sep 15
63 °FFog.3 mph94%30.07 "Hg2 mi
10:20 PM63 °FFog.5 mph94%30.07 "Hg2 mi
9:20 PM64 °FFog.5 mph88%30.07 "Hg2 mi
9:04 PM64 °FFog.5 mph88%30.07 "Hg2 mi
8:20 PM64 °FFog.6 mph88%30.07 "Hg3 mi
7:20 PM66 °FFog.No wind88%30.07 "Hg3 mi
6:20 PM68 °FPartly sunny.3 mph83%30.07 "Hg4 mi
5:20 PM68 °FBroken clouds.1 mph83%30.07 "Hg4 mi
4:48 PM66 °FBroken clouds.6 mph83%30.07 "Hg4 mi
4:20 PM66 °FPartly sunny.8 mph83%30.07 "Hg4 mi
3:20 PM66 °FFog.8 mph83%30.09 "Hg3 mi
2:20 PM64 °FFog.7 mph88%30.09 "Hg3 mi
1:20 PM64 °FFog.7 mph88%30.09 "Hg3 mi
12:20 PM64 °FFog.7 mph88%30.09 "Hg2 mi
11:20 AM64 °FFog.6 mph88%30.09 "Hg2 mi
10:20 AM63 °FFog.5 mph94%30.09 "Hg2 mi
9:20 AM63 °FFog.5 mph94%30.09 "Hg2 mi
8:20 AM61 °FFog.2 mph94%30.09 "Hg1 mi
7:20 AM59 °FFog.2 mph100%30.09 "Hg1 mi
6:20 AM59 °FFog.5 mph100%30.09 "Hg3 mi
5:20 AM59 °FFog.6 mph100%30.09 "Hg3 mi
4:20 AM61 °FPassing clouds.2 mph94%30.09 "Hg4 mi
3:20 AM61 °FPassing clouds.3 mph94%30.09 "Hg4 mi
Weather by CustomWeather, © 2014

See weather overviewHow to use our weather pages